Time,TemperatureF,DewpointF,PressureIn,WindDirection,WindDirectionDegrees,WindSpeedMPH,WindSpeedGustMPH,Humidity,HourlyPrecipIn,Conditions,Clouds,dailyrainin,SoftwareType,DateUTC
2013-02-22 00:11:00,24.4,21.0,30.13,NNE,19,5.0,10.0,86,0.00,,,0.00,weatherlink.com 1.10,2013-02-22 06:11:00,
2013-02-22 00:26:00,24.3,21.0,30.12,ENE,57,5.0,8.0,86,0.00,,,0.00,weatherlink.com 1.10,2013-02-22 06:26:00,
2013-02-22 00:41:00,24.2,21.0,30.11,East,100,1.0,9.0,87,0.00,,,0.00,weatherlink.com 1.10,2013-02-22 06:41:00,
2013-02-22 00:56:00,23.5,21.0,30.09,NNE,19,5.0,12.0,91,0.00,,,0.00,weatherlink.com 1.10,2013-02-22 06:56:00,
2013-02-22 01:11:00,23.1,21.0,30.08,NE,53,1.0,11.0,93,0.00,,,0.00,weatherlink.com 1.10,2013-02-22 07:11:00,
2013-02-22 01:26:00,23.1,22.0,30.07,NNE,25,5.0,9.0,94,0.00,,,0.00,weatherlink.com 1.10,2013-02-22 07:26:00,
2013-02-22 01:41:00,23.0,22.0,30.05,ENE,58,3.0,13.0,94,0.00,,,0.00,weatherlink.com 1.10,2013-02-22 07:41:00,
2013-02-22 01:56:00,23.0,22.0,30.03,East,81,5.0,11.0,94,0.00,,,0.00,weatherlink.com 1.10,2013-02-22 07:56:00,
2013-02-22 02:11:00,23.0,22.0,30.02,ENE,59,4.0,10.0,94,0.00,,,0.00,weatherlink.com 1.10,2013-02-22 08:11:00,
2013-02-22 02:26:00,23.0,22.0,30.01,ENE,78,9.0,12.0,94,0.00,,,0.00,weatherlink.com 1.10,2013-02-22 08:26:00,
2013-02-22 02:41:00,23.0,22.0,30.00,NE,40,4.0,11.0,94,0.00,,,0.00,weatherlink.com 1.10,2013-02-22 08:41:00,
2013-02-22 02:56:00,23.0,22.0,30.00,NE,50,4.0,8.0,94,0.00,,,0.00,weatherlink.com 1.10,2013-02-22 08:56:00,
2013-02-22 03:11:00,23.1,22.0,29.99,NE,52,2.0,10.0,94,0.00,,,0.00,weatherlink.com 1.10,2013-02-22 09:11:00,
2013-02-22 03:26:00,23.1,22.0,29.98,NE,50,4.0,8.0,94,0.00,,,0.00,weatherlink.com 1.10,2013-02-22 09:26:00,
2013-02-22 03:41:00,23.1,22.0,29.97,East,93,5.0,12.0,94,0.00,,,0.00,weatherlink.com 1.10,2013-02-22 09:41:00,
2013-02-22 03:56:00,23.2,22.0,29.97,ENE,60,5.0,7.0,94,0.00,,,0.00,weatherlink.com 1.10,2013-02-22 09:56:00,
2013-02-22 04:11:00,23.4,22.0,29.97,East,80,1.0,6.0,94,0.00,,,0.00,weatherlink.com 1.10,2013-02-22 10:11:00,
2013-02-22 04:26:00,23.4,22.0,29.97,ENE,77,2.0,7.0,95,0.00,,,0.00,weatherlink.com 1.10,2013-02-22 10:26:00,
2013-02-22 04:41:00,23.6,22.0,29.97,East,88,2.0,12.0,95,0.00,,,0.00,weatherlink.com 1.10,2013-02-22 10:41:00,
2013-02-22 04:56:00,23.7,23.0,29.96,East,92,3.0,5.0,95,0.00,,,0.00,weatherlink.com 1.10,2013-02-22 10:56:00,
2013-02-22 05:11:00,23.9,23.0,29.95,East,88,3.0,7.0,95,0.00,,,0.00,weatherlink.com 1.10,2013-02-22 11:11:00,
2013-02-22 05:26:00,24.1,23.0,29.95,ENE,67,2.0,8.0,95,0.00,,,0.00,weatherlink.com 1.10,2013-02-22 11:26:00,
2013-02-22 05:41:00,24.5,23.0,29.93,East,101,1.0,8.0,95,0.00,,,0.00,weatherlink.com 1.10,2013-02-22 11:41:00,
2013-02-22 05:56:00,24.8,24.0,29.93,ENE,76,1.0,8.0,95,0.00,,,0.00,weatherlink.com 1.10,2013-02-22 11:56:00,
2013-02-22 06:11:00,25.1,24.0,29.92,SE,128,1.0,7.0,95,0.00,,,0.00,weatherlink.com 1.10,2013-02-22 12:11:00,
2013-02-22 06:27:00,25.4,24.0,29.92,SSE,162,3.0,5.0,95,0.00,,,0.00,weatherlink.com 1.10,2013-02-22 12:27:00,
2013-02-22 06:42:00,25.5,24.0,29.91,SE,134,1.0,6.0,94,0.00,,,0.00,weatherlink.com 1.10,2013-02-22 12:42:00,
2013-02-22 06:57:00,25.6,24.0,29.91,ESE,104,3.0,7.0,94,0.00,,,0.00,weatherlink.com 1.10,2013-02-22 12:57:00,
2013-02-22 07:12:00,25.7,24.0,29.91,SSE,152,2.0,6.0,94,0.00,,,0.00,weatherlink.com 1.10,2013-02-22 13:12:00,
2013-02-22 07:27:00,25.8,24.0,29.90,SE,135,2.0,5.0,93,0.00,,,0.00,weatherlink.com 1.10,2013-02-22 13:27:00,
2013-02-22 07:42:00,25.9,24.0,29.90,ESE,109,3.0,6.0,93,0.00,,,0.00,weatherlink.com 1.10,2013-02-22 13:42:00,
2013-02-22 07:57:00,26.0,24.0,29.90,ESE,114,2.0,5.0,93,0.00,,,0.00,weatherlink.com 1.10,2013-02-22 13:57:00,
2013-02-22 08:12:00,26.1,24.0,29.89,SE,142,2.0,4.0,93,0.00,,,0.00,weatherlink.com 1.10,2013-02-22 14:12:00,
2013-02-22 08:27:00,26.2,25.0,29.88,South,186,0.0,4.0,93,0.00,,,0.00,weatherlink.com 1.10,2013-02-22 14:27:00,
2013-02-22 08:42:00,26.4,25.0,29.88,SSE,156,2.0,4.0,93,0.00,,,0.00,weatherlink.com 1.10,2013-02-22 14:42:00,
2013-02-22 08:57:00,26.5,25.0,29.88,SE,140,2.0,4.0,93,0.00,,,0.00,weatherlink.com 1.10,2013-02-22 14:57:00,
2013-02-22 09:12:00,26.6,25.0,29.88,SE,140,1.0,2.0,93,0.00,,,0.00,weatherlink.com 1.10,2013-02-22 15:12:00,
2013-02-22 09:27:00,26.7,25.0,29.88,SE,146,1.0,3.0,93,0.00,,,0.00,weatherlink.com 1.10,2013-02-22 15:27:00,
2013-02-22 09:42:00,26.7,25.0,29.88,South,178,1.0,4.0,94,0.00,,,0.00,weatherlink.com 1.10,2013-02-22 15:42:00,
2013-02-22 09:57:00,26.8,25.0,29.88,South,171,0.0,3.0,94,0.00,,,0.00,weatherlink.com 1.10,2013-02-22 15:57:00,
2013-02-22 10:12:00,26.8,25.0,29.88,South,181,0.0,4.0,94,0.00,,,0.00,weatherlink.com 1.10,2013-02-22 16:12:00,
2013-02-22 10:27:00,27.3,26.0,29.88,South,181,0.0,3.0,95,0.00,,,0.00,weatherlink.com 1.10,2013-02-22 16:27:00,
2013-02-22 10:42:00,27.6,26.0,29.88,South,180,0.0,2.0,95,0.00,,,0.00,weatherlink.com 1.10,2013-02-22 16:42:00,
2013-02-22 10:57:00,27.7,27.0,29.87,South,181,0.0,2.0,95,0.00,,,0.00,weatherlink.com 1.10,2013-02-22 16:57:00,
2013-02-22 11:12:00,27.7,26.0,29.87,South,180,0.0,2.0,94,0.00,,,0.00,weatherlink.com 1.10,2013-02-22 17:12:00,
2013-02-22 11:27:00,27.8,26.0,29.87,South,186,0.0,1.0,94,0.00,,,0.00,weatherlink.com 1.10,2013-02-22 17:27:00,
2013-02-22 11:42:00,28.0,27.0,29.87,South,185,2.0,3.0,94,0.00,,,0.00,weatherlink.com 1.10,2013-02-22 17:42:00,
2013-02-22 11:57:00,28.5,27.0,29.87,South,178,0.0,2.0,94,0.00,,,0.00,weatherlink.com 1.10,2013-02-22 17:57:00,
2013-02-22 12:12:00,28.6,27.0,29.85,South,181,1.0,3.0,93,0.00,,,0.00,weatherlink.com 1.10,2013-02-22 18:12:00,
2013-02-22 12:27:00,29.3,28.0,29.85,South,180,0.0,4.0,93,0.00,,,0.00,weatherlink.com 1.10,2013-02-22 18:27:00,
2013-02-22 12:42:00,29.0,27.0,29.84,South,182,0.0,4.0,92,0.00,,,0.00,weatherlink.com 1.10,2013-02-22 18:42:00,
2013-02-22 12:57:00,29.8,28.0,29.83,South,181,2.0,2.0,92,0.00,,,0.00,weatherlink.com 1.10,2013-02-22 18:57:00,
2013-02-22 13:12:00,30.1,28.0,29.83,South,183,1.0,3.0,91,0.00,,,0.00,weatherlink.com 1.10,2013-02-22 19:12:00,
2013-02-22 13:27:00,29.9,27.0,29.83,South,191,0.0,4.0,90,0.00,,,0.00,weatherlink.com 1.10,2013-02-22 19:27:00,
2013-02-22 13:42:00,29.8,28.0,29.83,SSW,193,0.0,3.0,91,0.00,,,0.00,weatherlink.com 1.10,2013-02-22 19:42:00,
2013-02-22 13:57:00,29.7,27.0,29.83,SSW,193,0.0,2.0,91,0.00,,,0.00,weatherlink.com 1.10,2013-02-22 19:57:00,
2013-02-22 14:12:00,29.8,27.0,29.82,SSW,193,1.0,4.0,90,0.00,,,0.00,weatherlink.com 1.10,2013-02-22 20:12:00,
2013-02-22 14:27:00,29.9,27.0,29.81,SSE,163,0.0,3.0,90,0.00,,,0.00,weatherlink.com 1.10,2013-02-22 20:27:00,
2013-02-22 14:42:00,29.8,27.0,29.83,South,186,1.0,4.0,90,0.01,,,0.01,weatherlink.com 1.10,2013-02-22 20:42:00,
2013-02-22 14:57:00,29.6,27.0,29.84,South,186,2.0,3.0,90,0.01,,,0.01,weatherlink.com 1.10,2013-02-22 20:57:00,
2013-02-22 15:12:00,29.5,27.0,29.84,South,186,2.0,4.0,91,0.02,,,0.02,weatherlink.com 1.10,2013-02-22 21:12:00,
2013-02-22 15:27:00,29.4,27.0,29.85,South,186,2.0,4.0,91,0.02,,,0.02,weatherlink.com 1.10,2013-02-22 21:27:00,
2013-02-22 15:42:00,29.3,27.0,29.84,South,186,0.0,3.0,91,0.01,,,0.02,weatherlink.com 1.10,2013-02-22 21:42:00,
2013-02-22 15:57:00,29.3,27.0,29.84,South,186,1.0,3.0,91,0.01,,,0.02,weatherlink.com 1.10,2013-02-22 21:57:00,
2013-02-22 16:12:00,29.1,27.0,29.84,South,187,3.0,4.0,91,0.00,,,0.02,weatherlink.com 1.10,2013-02-22 22:12:00,
2013-02-22 16:27:00,29.0,27.0,29.84,South,186,2.0,3.0,91,0.00,,,0.02,weatherlink.com 1.10,2013-02-22 22:27:00,
2013-02-22 16:42:00,28.9,27.0,29.84,South,187,1.0,2.0,92,0.00,,,0.02,weatherlink.com 1.10,2013-02-22 22:42:00,
2013-02-22 16:57:00,28.8,27.0,29.84,South,187,2.0,3.0,91,0.00,,,0.02,weatherlink.com 1.10,2013-02-22 22:57:00,
2013-02-22 17:12:00,28.7,27.0,29.85,South,186,1.0,3.0,92,0.00,,,0.02,weatherlink.com 1.10,2013-02-22 23:12:00,
2013-02-22 17:27:00,28.5,27.0,29.85,South,187,0.0,2.0,92,0.00,,,0.02,weatherlink.com 1.10,2013-02-22 23:27:00,
2013-02-22 17:42:00,28.4,26.0,29.85,South,187,0.0,2.0,92,0.00,,,0.02,weatherlink.com 1.10,2013-02-22 23:42:00,
2013-02-22 17:57:00,28.3,26.0,29.86,South,186,1.0,3.0,92,0.00,,,0.02,weatherlink.com 1.10,2013-02-22 23:57:00,
2013-02-22 18:12:00,28.1,26.0,29.86,South,187,0.0,3.0,92,0.00,,,0.02,weatherlink.com 1.10,2013-02-23 00:12:00,
2013-02-22 18:27:00,28.0,26.0,29.86,South,187,0.0,4.0,92,0.00,,,0.02,weatherlink.com 1.10,2013-02-23 00:27:00,
2013-02-22 18:43:00,27.9,26.0,29.86,South,187,0.0,3.0,92,0.00,,,0.02,weatherlink.com 1.10,2013-02-23 00:43:00,
2013-02-22 18:58:00,27.8,26.0,29.86,South,187,1.0,4.0,92,0.00,,,0.02,weatherlink.com 1.10,2013-02-23 00:58:00,
2013-02-22 19:13:00,27.6,26.0,29.87,South,187,2.0,3.0,92,0.00,,,0.02,weatherlink.com 1.10,2013-02-23 01:13:00,
2013-02-22 19:28:00,27.5,26.0,29.87,South,187,1.0,3.0,92,0.00,,,0.02,weatherlink.com 1.10,2013-02-23 01:28:00,
2013-02-22 19:43:00,27.4,25.0,29.87,South,187,2.0,4.0,92,0.00,,,0.02,weatherlink.com 1.10,2013-02-23 01:43:00,
2013-02-22 19:58:00,27.2,25.0,29.87,South,187,1.0,4.0,92,0.00,,,0.02,weatherlink.com 1.10,2013-02-23 01:58:00,
2013-02-22 20:13:00,27.1,25.0,29.88,South,187,2.0,5.0,92,0.00,,,0.02,weatherlink.com 1.10,2013-02-23 02:13:00,
2013-02-22 20:28:00,27.0,25.0,29.88,South,187,4.0,4.0,92,0.00,,,0.02,weatherlink.com 1.10,2013-02-23 02:28:00,
2013-02-22 20:43:00,26.9,25.0,29.88,South,187,2.0,4.0,92,0.00,,,0.02,weatherlink.com 1.10,2013-02-23 02:43:00,
2013-02-22 20:58:00,26.9,25.0,29.88,South,187,1.0,4.0,92,0.00,,,0.02,weatherlink.com 1.10,2013-02-23 02:58:00,
2013-02-22 21:13:00,26.8,25.0,29.88,South,187,0.0,3.0,93,0.00,,,0.02,weatherlink.com 1.10,2013-02-23 03:13:00,
2013-02-22 21:28:00,26.7,25.0,29.88,South,187,1.0,5.0,93,0.00,,,0.02,weatherlink.com 1.10,2013-02-23 03:28:00,
2013-02-22 21:43:00,26.7,25.0,29.87,South,187,3.0,4.0,93,0.00,,,0.02,weatherlink.com 1.10,2013-02-23 03:43:00,
2013-02-22 21:58:00,26.6,25.0,29.88,South,187,4.0,4.0,93,0.00,,,0.02,weatherlink.com 1.10,2013-02-23 03:58:00,
2013-02-22 22:13:00,26.6,25.0,29.88,South,187,2.0,4.0,92,0.00,,,0.02,weatherlink.com 1.10,2013-02-23 04:13:00,
2013-02-22 22:28:00,26.5,25.0,29.88,South,187,0.0,4.0,92,0.00,,,0.02,weatherlink.com 1.10,2013-02-23 04:28:00,
2013-02-22 22:43:00,26.4,24.0,29.87,South,187,2.0,3.0,92,0.00,,,0.02,weatherlink.com 1.10,2013-02-23 04:43:00,
2013-02-22 22:58:00,26.3,24.0,29.87,South,187,2.0,5.0,92,0.00,,,0.02,weatherlink.com 1.10,2013-02-23 04:58:00,
2013-02-22 23:28:00,26.3,24.0,29.87,South,187,4.0,5.0,92,0.00,,,0.02,weatherlink.com 1.10,2013-02-23 05:28:00,
2013-02-22 23:43:00,26.2,24.0,29.87,South,187,2.0,5.0,92,0.00,,,0.02,weatherlink.com 1.10,2013-02-23 05:43:00,
2013-02-22 23:58:00,26.2,24.0,29.87,South,187,2.0,5.0,92,0.00,,,0.02,weatherlink.com 1.10,2013-02-23 05:58:00,